Location: Asheville, NC
(35.6000°N, 82.5500°W)
Time: 04:47:09

Vanguard 1 Rocket - Pass Details

Date: 08 December 2017
Orbit: 655 x 4222 km, 34.3° (Epoch: 20 March)

Event Time Altitude Azimuth Distance (km) Brightness Sun altitude
Rises 00:30:09 0° 287° (WNW) 7,395 12.1 -77.0°
Reaches altitude 10° 00:34:42 10° 284° (WNW) 6,704 11.7 -76.8°
Enters shadow 00:36:43 15° 282° (WNW) 6,417 11.6 -76.7°
Exits shadow 01:19:29 13° 142° (SE) 6,229 11.5 -72.1°
Drops below altitude 10° 01:20:54 10° 140° (SE) 6,430 11.6 -71.9°
Sets 01:25:12 0° 137° (SE) 7,089 12.0 -71.2°
